Location: Austin
(30.3000°N, 97.7500°W)
Time: 23:38:55
(UTC-05:00)

Cosmos 2360 - Pass Details

Date: 06 May 2026
Orbit: 846 x 856 km, 70.7° (Epoch: 13 May)

Event Time Altitude Azimuth Distance (km) Brightness Sun altitude
Rises 21:35:01 0° 345° (NNW) 3,417 8.1 -16.9°
Reaches altitude 10° 21:37:31 10° 349° (N) 2,480 7.2 -17.3°
Maximum altitude 21:43:08 58° 68° (ENE) 991 4.3 -18.4°
Enters shadow 21:45:33 33° 132° (SE) 1,397 4.8 -18.8°
